Wind_Speed
27 28 26 24 24 23 23 22 21 20 19 21 29 34 33 27 30 34 36 36 35 36 40 42 37 32 30 28 28 29 31 32 34 33 32 32 32 32 32 33 34 34 35 35
28 26 21 22 20 21 23 26 28 27 25 27 27 32 36 37 34 32 38 41 38 38 43 43 38 33 31 30 30 31 33 36 38 39 39 39 37 36 36 38 38 39 39 38
23 18 19 22 23 23 25 27 28 30 30 32 35 37 40 43 38 38 41 45 46 41 45 46 42 35 33 33 34 33 35 39 41 42 44 44 43 41 40 41 42 43 43 42
19 19 18 20 22 23 24 24 26 28 31 33 33 37 38 37 34 33 35 39 42 36 39 46 42 36 35 35 35 35 38 40 43 45 46 47 47 46 45 46 46 46 45 45
18 17 19 19 18 18 18 19 22 24 28 33 35 39 38 32 32 32 32 35 38 34 35 43 41 36 35 34 33 36 41 44 46 47 47 48 49 49 49 48 46 46 47 49
20 17 18 18 17 18 17 19 21 24 26 30 28 30 33 28 29 29 26 31 35 32 34 35 33 33 33 33 34 37 42 45 47 47 47 48 49 49 48 47 47 49 51 51
22 21 21 22 21 19 19 18 19 20 21 21 17 21 23 20 21 23 24 31 33 34 35 32 31 32 34 34 36 39 42 44 44 46 48 48 48 49 49 50 50 53 55 54
23 24 23 25 25 22 22 21 19 17 18 17 15 16 18 19 20 24 29 35 37 33 33 33 32 31 31 33 36 38 40 42 44 46 47 47 48 49 49 51 52 53 55 55
21 19 20 23 25 25 22 23 20 19 19 22 23 23 20 20 26 29 30 31 28 26 27 27 27 26 27 30 32 34 37 39 40 41 42 44 46 47 48 50 51 51 52 53
30 28 19 17 22 26 24 22 20 23 24 24 20 17 17 19 23 26 30 29 19 18 21 24 25 26 27 30 31 33 34 35 35 36 38 41 43 45 48 48 48 50 52 54
37 36 29 21 23 21 21 21 22 25 24 23 22 18 21 23 25 27 33 35 19 18 21 24 27 29 32 34 35 35 34 34 36 37 38 40 43 44 45 47 50 53 55 56
37 36 36 33 28 22 23 25 25 28 28 26 25 21 24 28 28 32 37 38 33 28 24 24 28 31 34 36 37 37 36 38 39 40 42 43 44 44 47 50 53 55 55 55
37 39 38 35 31 29 27 28 28 28 29 28 24 21 28 30 31 33 37 38 34 26 21 24 29 33 36 38 38 38 37 38 39 41 42 43 45 48 50 52 53 53 53 54
35 37 36 31 24 25 29 32 31 29 30 29 26 27 34 36 38 40 41 41 32 20 22 28 33 37 40 40 39 38 39 42 44 46 47 47 48 51 53 51 51 51 52 55
37 38 37 36 32 28 28 33 33 30 29 29 28 27 31 35 40 40 38 35 26 22 25 30 34 39 41 40 39 41 45 48 51 51 50 48 50 55 53 51 49 49 51 53
36 38 38 38 36 36 32 30 29 26 24 27 29 28 37 43 45 46 43 36 33 32 31 33 36 39 41 43 45 47 51 53 53 52 50 49 54 58 55 50 48 51 53 54
33 33 33 35 36 37 40 36 34 36 35 35 36 41 46 47 47 47 47 47 45 42 40 41 43 45 47 49 51 53 55 54 52 51 50 51 56 60 56 51 50 52 53 53
34 33 34 34 37 40 36 34 39 43 45 45 46 46 45 43 43 44 47 49 49 48 47 48 50 51 52 54 54 54 52 50 49 50 50 54 58 58 54 49 49 49 48 48
35 35 36 37 38 40 33 37 41 44 47 47 45 44 43 43 44 45 46 48 50 50 50 50 50 50 50 50 49 48 47 47 48 49 52 57 56 54 51 47 46 44 45 47
32 34 35 35 37 38 36 40 41 41 44 43 41 40 39 40 43 44 44 46 48 50 50 50 48 47 45 45 45 45 45 46 46 48 53 56 54 51 46 43 42 43 46 48
25 27 29 30 32 32 37 40 41 42 44 42 39 36 37 39 41 41 41 42 42 44 45 44 43 42 42 42 41 42 42 43 44 47 51 52 52 49 43 40 42 44 47 48
28 27 25 25 27 31 36 38 41 42 41 39 37 35 35 36 37 37 36 36 36 37 38 37 36 35 34 35 35 37 38 41 44 47 48 47 45 43 43 43 45 46 48 49
24 24 25 26 27 29 33 37 38 36 36 34 34 34 35 35 35 34 33 32 32 31 30 29 28 28 29 30 32 34 37 40 43 43 42 40 39 40 42 44 45 46 47 45
23 24 25 26 28 31 35 35 33 33 34 34 35 36 37 36 35 32 30 29 27 26 25 25 25 25 26 28 32 35 37 37 37 37 37 37 38 40 42 43 44 43 39 32
23 24 24 26 28 32 34 34 34 35 36 37 37 37 36 35 32 29 27 25 23 22 21 20 21 23 26 29 30 31 30 31 32 34 37 38 39 39 39 39 37 32 24 19
24 24 24 26 28 30 31 32 32 31 32 32 33 33 33 31 28 25 23 20 19 18 18 19 20 22 23 23 23 25 27 30 33 35 36 37 36 36 34 30 24 19 19 21
Wind_Direction
236 236 236 238 240 239 230 227 234 248 257 247 248 247 248 243 255 264 263 264 266 273 280 284 288 292 292 285 277 275 279 286 290 290 290 291 294 296 298 301 302 300 297 298
236 238 238 234 232 241 238 233 230 227 224 226 235 249 254 249 240 256 266 266 266 270 274 280 285 288 285 278 272 273 278 282 285 286 286 285 287 289 290 292 295 296 294 292
235 230 234 234 229 234 240 242 241 239 236 235 235 245 253 261 260 251 257 266 271 269 270 276 282 282 278 271 269 272 278 280 281 283 283 283 284 285 285 286 288 292 292 289
216 210 220 237 237 240 246 249 249 245 243 244 244 253 259 269 275 270 266 267 272 275 264 269 275 277 272 267 264 268 274 277 278 279 280 280 281 284 285 285 285 289 291 288
204 209 221 234 240 245 252 251 252 253 255 255 251 254 258 261 264 267 271 270 271 277 263 261 267 270 269 266 262 264 270 274 276 277 276 276 278 281 284 287 288 289 290 289
212 219 236 242 243 250 254 255 257 258 260 263 269 269 269 265 262 267 271 266 268 274 268 265 268 267 266 266 266 266 270 273 274 274 275 278 279 282 286 290 290 289 290 291
225 226 232 243 246 253 260 262 265 270 274 283 294 287 288 284 263 253 251 252 259 265 270 272 270 265 265 267 268 269 271 274 274 274 276 278 281 284 286 287 287 289 291 292
241 247 248 252 255 256 259 265 266 259 258 265 265 274 286 265 253 249 252 258 266 266 266 266 264 262 265 269 272 275 277 278 277 277 278 279 281 282 284 285 287 290 294 296
228 246 263 264 262 256 249 253 267 271 267 261 256 248 252 269 278 277 274 274 272 265 260 257 256 260 265 270 274 278 280 280 280 280 279 279 280 282 284 286 289 294 298 301
215 216 214 236 245 255 258 255 248 253 259 264 268 273 274 266 262 263 265 266 267 268 263 258 257 262 267 270 275 280 283 282 282 281 281 282 284 286 287 289 296 301 304 304
224 223 214 214 241 255 263 263 247 244 249 258 266 270 277 266 258 258 268 269 263 273 266 260 259 264 268 272 278 284 284 283 282 282 284 286 287 288 292 297 302 303 302 300
230 232 230 224 227 239 250 253 253 255 257 257 261 264 264 264 263 264 265 268 274 274 268 263 263 266 270 275 280 284 285 284 286 286 285 285 288 291 297 300 301 300 297 295
231 236 239 238 238 239 240 245 245 245 252 254 254 265 267 266 265 266 266 267 263 260 267 274 272 272 273 277 280 283 287 292 297 299 297 293 295 299 299 297 297 298 298 295
239 243 243 240 237 239 235 237 241 240 244 248 250 250 257 262 266 267 267 268 254 248 271 278 277 277 277 278 280 286 295 300 302 302 302 299 299 302 298 293 295 299 301 297
242 243 243 240 228 234 238 236 240 230 225 233 242 254 263 263 260 264 272 274 267 284 283 278 279 281 282 284 291 297 300 301 301 300 300 297 298 302 296 291 296 301 302 299
243 244 244 243 234 230 235 235 245 252 250 248 246 252 257 257 259 265 274 280 291 296 288 282 281 283 287 292 295 297 298 298 298 297 297 296 296 297 292 290 296 300 300 300
252 250 247 246 241 238 238 238 244 247 249 249 248 249 253 258 265 272 277 279 284 285 283 284 285 286 288 290 292 293 294 295 295 295 295 295 296 292 287 289 295 298 299 299
254 253 251 249 246 246 250 247 246 248 249 251 255 261 266 268 269 271 274 278 282 285 285 286 286 286 286 287 288 289 290 290 291 292 291 293 293 290 288 294 299 300 299 300
253 253 253 251 250 252 250 249 250 252 254 258 261 262 265 268 270 271 274 277 281 284 285 284 284 284 284 284 284 286 287 288 290 291 290 290 291 294 298 301 302 301 301 301
254 256 255 252 250 248 245 248 253 256 258 260 260 261 264 267 270 273 275 277 280 282 282 283 282 282 281 281 282 284 285 287 288 288 289 291 298 305 307 306 304 303 304 306
256 261 259 254 250 244 245 247 250 252 256 261 263 264 266 269 272 276 279 281 283 283 283 282 281 280 280 281 282 283 284 286 287 289 292 296 302 307 309 307 306 306 308 309
258 263 262 257 251 244 247 248 250 255 260 262 263 265 268 271 275 278 282 285 287 286 284 283 282 282 282 283 284 284 286 287 289 293 297 301 305 307 307 307 308 308 308 309
258 258 256 253 254 255 254 253 256 259 262 263 264 265 267 271 275 279 283 286 287 287 286 285 285 285 285 287 288 288 289 291 294 298 302 305 306 306 307 307 307 307 308 309
261 259 256 252 250 251 257 262 264 264 264 263 264 266 268 270 273 277 281 282 284 287 288 288 288 288 288 288 288 289 292 296 301 303 304 306 306 306 306 306 307 310 311 313
265 261 257 256 256 258 263 266 268 268 267 266 264 265 266 267 269 273 274 276 282 286 288 289 288 289 290 291 293 296 300 303 305 306 307 307 306 306 307 311 314 315 317 321
267 269 267 265 263 263 265 266 265 265 265 266 264 262 261 262 263 263 264 268 275 281 286 287 290 294 298 301 305 308 309 309 308 307 307 307 309 312 315 318 320 321 322 322
Height
5824 5828 5831 5836 5839 5842 5845 5848 5853 5858 5862 5863 5863 5862 5864 5866 5865 5863 5863 5864 5865 5863 5860 5854 5854 5857 5857 5856 5856 5856 5855 5854 5853 5852 5851 5849 5848 5846 5845 5842 5840 5838 5835 5832
5820 5824 5829 5831 5834 5837 5840 5842 5846 5850 5853 5856 5857 5855 5854 5857 5858 5858 5855 5856 5858 5857 5853 5848 5849 5851 5851 5850 5850 5850 5849 5848 5846 5846 5845 5843 5842 5840 5839 5837 5834 5832 5829 5826
5816 5822 5824 5826 5829 5832 5835 5837 5840 5843 5846 5847 5848 5847 5847 5847 5850 5851 5850 5848 5850 5851 5845 5841 5841 5844 5843 5842 5842 5843 5843 5841 5839 5839 5837 5836 5834 5833 5832 5830 5827 5824 5821 5817
5813 5816 5821 5823 5825 5827 5829 5831 5833 5834 5836 5838 5841 5838 5840 5840 5840 5841 5841 5840 5840 5842 5840 5833 5832 5834 5833 5833 5835 5836 5835 5833 5831 5830 5830 5828 5826 5824 5823 5820 5818 5815 5812 5808
5810 5813 5816 5818 5821 5822 5824 5826 5827 5828 5829 5829 5830 5830 5831 5835 5835 5835 5834 5833 5832 5833 5831 5826 5825 5826 5825 5824 5827 5829 5828 5826 5823 5822 5821 5819 5817 5815 5812 5809 5807 5804 5801 5798
5805 5809 5812 5814 5816 5817 5819 5820 5820 5821 5822 5822 5824 5824 5823 5827 5828 5829 5829 5826 5822 5822 5820 5819 5819 5818 5817 5817 5818 5820 5819 5818 5816 5814 5812 5810 5807 5804 5802 5799 5796 5792 5789 5787
5801 5804 5807 5810 5811 5813 5814 5815 5816 5816 5816 5816 5819 5818 5818 5819 5820 5821 5821 5817 5814 5813 5811 5812 5812 5811 5809 5809 5810 5811 5810 5809 5807 5806 5803 5801 5798 5795 5793 5789 5785 5780 5776 5774
5796 5800 5802 5804 5806 5808 5809 5810 5812 5813 5814 5816 5818 5817 5817 5815 5813 5812 5811 5808 5807 5807 5806 5806 5804 5803 5803 5802 5801 5801 5801 5801 5799 5797 5794 5791 5788 5786 5783 5777 5774 5770 5765 5760
5793 5798 5800 5798 5799 5801 5803 5804 5806 5807 5807 5807 5808 5810 5811 5809 5807 5805 5802 5799 5799 5799 5799 5798 5797 5796 5796 5796 5795 5794 5793 5791 5789 5786 5784 5780 5777 5774 5772 5767 5763 5760 5754 5748
5784 5788 5792 5795 5795 5795 5797 5799 5801 5802 5802 5801 5803 5804 5806 5805 5802 5798 5793 5791 5793 5793 5792 5791 5790 5790 5790 5789 5788 5787 5785 5783 5780 5777 5774 5771 5767 5764 5761 5757 5753 5747 5742 5736
5775 5779 5785 5789 5790 5791 5792 5793 5794 5797 5798 5798 5798 5801 5796 5795 5794 5792 5788 5785 5784 5786 5785 5784 5784 5784 5783 5782 5780 5779 5777 5774 5771 5768 5765 5762 5758 5754 5750 5746 5742 5736 5729 5724
5768 5771 5775 5779 5783 5786 5788 5788 5790 5790 5789 5789 5790 5794 5790 5788 5786 5783 5779 5778 5777 5777 5778 5778 5778 5777 5775 5773 5771 5769 5767 5765 5762 5758 5754 5751 5747 5743 5739 5734 5729 5723 5718 5712
5759 5762 5766 5771 5776 5778 5779 5781 5782 5783 5783 5782 5784 5788 5778 5777 5776 5774 5771 5770 5767 5768 5771 5772 5771 5769 5767 5765 5763 5760 5757 5755 5751 5748 5744 5740 5736 5732 5727 5722 5717 5711 5705 5699
5752 5754 5759 5764 5768 5769 5770 5771 5773 5775 5775 5775 5776 5777 5769 5769 5768 5765 5763 5759 5755 5760 5764 5765 5763 5760 5757 5756 5754 5751 5748 5745 5741 5737 5733 5729 5724 5720 5714 5709 5704 5698 5692 5687
5742 5745 5748 5752 5757 5759 5760 5762 5762 5761 5762 5766 5767 5765 5759 5758 5757 5755 5754 5753 5751 5753 5756 5755 5753 5750 5748 5746 5744 5741 5737 5733 5729 5725 5721 5717 5712 5707 5702 5697 5692 5686 5680 5674
5732 5736 5739 5742 5747 5750 5751 5754 5755 5754 5754 5755 5757 5757 5747 5747 5747 5747 5747 5744 5743 5745 5746 5746 5744 5742 5739 5736 5734 5730 5726 5722 5718 5713 5709 5704 5700 5694 5689 5683 5679 5673 5668 5662
5724 5728 5731 5734 5737 5738 5742 5746 5746 5746 5746 5745 5744 5741 5740 5741 5742 5741 5739 5737 5737 5737 5737 5736 5734 5732 5730 5727 5724 5720 5715 5711 5707 5702 5697 5693 5688 5683 5676 5671 5666 5661 5655 5649
5716 5718 5721 5725 5727 5729 5736 5735 5733 5734 5733 5733 5734 5733 5734 5736 5736 5735 5732 5728 5727 5727 5726 5725 5723 5721 5719 5716 5712 5708 5704 5700 5696 5691 5686 5682 5677 5672 5665 5659 5654 5648 5642 5637
5707 5710 5712 5714 5716 5720 5725 5720 5723 5724 5720 5723 5724 5725 5726 5727 5724 5725 5724 5721 5718 5716 5714 5712 5710 5708 5705 5702 5699 5696 5692 5689 5685 5680 5676 5671 5665 5659 5653 5647 5642 5636 5631 5626
5698 5700 5702 5704 5707 5710 5710 5709 5712 5713 5709 5712 5713 5715 5717 5716 5714 5714 5713 5711 5708 5706 5703 5701 5698 5696 5693 5690 5687 5684 5681 5678 5674 5670 5665 5659 5652 5647 5642 5636 5631 5626 5620 5614
5691 5692 5693 5695 5697 5700 5697 5700 5702 5703 5700 5702 5704 5706 5706 5705 5704 5704 5703 5700 5697 5694 5691 5689 5686 5684 5682 5679 5677 5674 5671 5667 5663 5659 5654 5648 5642 5636 5632 5626 5621 5615 5609 5604
5685 5686 5687 5687 5688 5690 5688 5690 5691 5691 5692 5693 5694 5695 5695 5694 5693 5693 5692 5690 5687 5684 5681 5678 5676 5674 5672 5670 5667 5664 5661 5658 5654 5649 5644 5638 5632 5627 5622 5617 5611 5605 5600 5594
5678 5680 5680 5682 5682 5680 5680 5680 5681 5683 5684 5685 5685 5685 5685 5685 5684 5684 5683 5681 5678 5676 5673 5671 5669 5667 5664 5662 5659 5657 5653 5649 5644 5639 5634 5629 5623 5618 5613 5608 5602 5597 5591 5584
5672 5673 5674 5674 5674 5673 5671 5671 5673 5675 5675 5675 5675 5675 5675 5675 5675 5676 5675 5673 5671 5669 5667 5665 5663 5660 5658 5656 5652 5649 5644 5640 5635 5630 5626 5622 5616 5610 5605 5599 5593 5587 5581 5575
5666 5666 5667 5667 5667 5666 5665 5665 5665 5665 5665 5665 5665 5665 5666 5666 5667 5667 5667 5666 5665 5664 5662 5660 5658 5655 5653 5649 5645 5641 5637 5633 5628 5623 5618 5613 5608 5602 5596 5590 5584 5578 5573 5569
5660 5660 5660 5659 5658 5658 5657 5656 5655 5655 5655 5655 5655 5656 5657 5657 5659 5660 5660 5661 5660 5659 5657 5656 5653 5651 5647 5644 5640 5636 5632 5627 5622 5617 5611 5605 5599 5593 5587 5582 5577 5572 5569 5565